[[[{"header":{"parameterUnit":"kt","parameterCategory":2,"dx":1,"dy":1,"la1":30.253999710083008,"la2":30.299108505249023,"lo1":-89.0895004272461,"lo2":-89.04439544677734,"nx":28,"ny":28,"refTime":"2022-10-15T21:00:00:Z","depth":0,"parameterNumber":1,"parameterNumberName":"U-component_of_WINDS"},"data":[-4.6043,-4.6101,-4.606,-4.6109,-4.608,-4.6106,-4.6102,-4.6094,-4.6076,-4.6105,-4.6115,-4.608,-4.6047,-4.605,-4.6059,-4.6043,-4.6049,-4.6102,-4.6074,-4.5875,-4.5845,-4.5816,-4.5797,-4.6105,-4.6105,-4.6284,-4.6286,-4.6287,-4.5908,-4.5879,-4.5892,-4.5876,-4.5887,-4.5812,-4.5794,-4.5809,-4.5834,-4.5814,-4.5819,-4.5841,-4.5854,-4.5801,-4.5806,-4.5834,-4.5798,-4.5838,-4.5834,-4.583,-4.5617,-4.5597,-4.5868,-4.5868,-4.5868,-4.5867,-4.5867,-4.5867,-4.5649,-4.5686,-4.565,-4.5662,-4.5643,-4.5633,-4.5661,-4.5614,-4.5627,-4.5624,-4.5572,-4.56,-4.5571,-4.5554,-4.5539,-4.5561,-4.5508,-4.5538,-4.5545,-4.5554,-4.5569,-4.5316,-4.556,-4.5559,-4.5558,-4.5558,-4.5557,0,-4.5446,-4.5407,-4.5414,-4.5411,-4.5417,-4.541,-4.5396,-4.5412,-4.5315,-4.533,-4.5347,-4.535,-4.5357,-4.5369,-4.5363,-4.5338,-4.5259,-4.5247,-4.5267,-4.5291,-4.5316,-4.5302,-4.4956,-4.5238,-4.5236,-4.5233,-4.5232,-4.5231,-4.518,-4.5227,-4.5167,-4.5178,-4.5158,-4.5178,-4.5181,-4.509,-4.5098,-4.5068,-4.5105,-4.5116,-4.5118,-4.5155,-4.5099,-4.5104,-4.5065,-4.5178,-4.5064,-4.5088,-4.5064,-4.5061,-4.5066,-4.52,-4.5204,-4.5207,-4.521,0,-4.5035,-4.496,-4.5018,-4.4952,-4.4937,-4.4992,-4.4936,-4.4969,-4.4918,-4.4957,-4.4961,-4.4881,-4.49,-4.4824,-4.4831,-4.4791,-4.4884,-4.4847,-4.4894,-4.4882,-4.4974,-4.4966,-4.5288,-4.5326,-4.5008,-4.5011,-4.5014,0,-4.4777,-4.4842,-4.4727,-4.4764,-4.4834,-4.4738,-4.4811,-4.4773,-4.4742,-4.4771,-4.4668,-4.4698,-4.4595,-4.4616,-4.4556,-4.4619,-4.462,-4.4592,-4.4575,-4.46,-4.4603,-4.46,-4.4585,-4.4536,-4.4535,-4.4533,-4.4532,0,-4.4554,-4.4567,-4.4628,-4.4618,-4.4552,-4.4584,-4.4558,-4.4521,-4.4524,-4.4516,-4.4518,-4.4517,-4.4516,-4.4518,-4.4441,-4.4367,-4.4516,-4.4398,-4.4487,-4.4489,-4.4521,-4.4519,-4.4827,-4.453,-4.453,-4.4529,-4.4528,0,-4.4332,-4.4323,-4.4422,-4.4363,-4.437,-4.4411,-4.44,-4.4416,-4.4385,-4.4348,-4.4342,-4.4261,-4.4309,-4.4198,-4.4262,-4.4188,-4.4194,-4.4171,-4.4176,-4.4173,-4.4049,-4.4231,-4.4533,-4.4561,-4.4176,-4.4173,-4.417,0,-4.4097,-4.4175,-4.4089,-4.4186,-4.421,-4.4088,-4.4132,-4.4105,-4.4059,-4.4075,-4.4025,-4.4043,-4.3944,-4.3938,-4.3981,-4.393,-4.4028,-4.3915,-4.394,-4.3942,-4.395,-4.4228,-4.429,-4.4476,-4.4131,-4.4135,-4.4138,0,-4.3904,-4.3817,-4.384,-4.3824,-4.377,-4.3789,-4.384,-4.3834,-4.3849,-4.383,-4.387,-4.3895,-4.382,-4.3812,-4.3745,-4.3794,-4.3959,-4.3706,-4.3704,-4.3754,-4.4105,-4.4164,-4.4196,-4.3904,-4.3909,-4.3912,-4.4107,0,-4.3583,-4.361,-4.3668,-4.3634,-4.3636,-4.3691,-4.3602,-4.3617,-4.3551,-4.3499,-4.3556,-4.3512,-4.3508,-4.3522,-4.3458,-4.3593,-4.3557,-4.3477,-4.336,-4.3544,-4.3606,-4.3631,-4.3275,-4.3271,-4.3268,-4.3265,0,0,-4.3376,-4.341,-4.3312,-4.3353,-4.3348,-4.3217,-4.3283,-4.3264,-4.3227,-4.3228,-4.3162,-4.319,-4.3156,-4.3235,-4.3285,-4.3284,-4.33,-4.3237,-4.3457,-4.3479,-4.3499,-4.3567,-4.3595,-4.3259,-4.3258,-4.3257,-4.3256,0,-4.3237,-4.3203,-4.3267,-4.3242,-4.3199,-4.3139,-4.3156,-4.309,-4.3059,-4.3113,-4.3003,-4.3027,-4.3051,-4.3029,-4.3022,-4.3227,-4.3142,-4.3233,-4.3372,-4.3427,-4.3453,-4.3476,-4.3549,-4.3576,-4.3247,-4.3248,-4.3248,0,-4.3029,-4.2979,-4.3,-4.298,-4.2951,-4.2978,-4.2834,-4.2868,-4.2888,-4.2741,-4.2795,-4.2759,-4.2723,-4.2808,-4.2843,-4.2783,-4.3005,-4.2919,-4.2937,-4.2938,-4.2987,-4.3019,-4.3047,-4.2675,-4.2673,-4.2671,0,0,-4.2922,-4.2944,-4.286,-4.2943,-4.2932,-4.2843,-4.2848,-4.278,-4.2748,-4.2735,-4.2685,-4.2659,-4.2671,-4.2681,-4.2688,-4.2794,-4.2779,-4.2852,-4.2879,-4.2901,-4.2915,-4.2969,-4.3001,-4.2665,-4.2665,-4.2665,0,0,-4.287,-4.2774,-4.271,-4.2795,-4.2768,-4.269,-4.2745,-4.2666,-4.2662,-4.2645,-4.2534,-4.2522,-4.2599,-4.2567,-4.2495,-4.2644,-4.2531,-4.2546,-4.2661,-4.2694,-4.2721,-4.2726,-4.2339,0,0,0,0,0,-4.268,-4.2785,-4.2729,-4.2729,-4.2702,-4.2722,-4.2718,-4.2626,-4.2547,-4.2594,-4.2539,-4.2447,-4.2505,-4.2439,-4.2442,-4.2522,-4.2585,-4.2599,-4.2613,-4.2786,-4.2822,-4.2851,0,0,0,0,0,0,-4.2679,-4.268,-4.2726,-4.2654,-4.2646,-4.2717,-4.2563,-4.2541,-4.254,-4.2522,-4.2461,-4.2445,-4.2369,-4.2431,-4.2435,-4.2514,-4.2337,-4.2591,-4.2603,-4.2614,-4.2798,-4.2827,-4.2852,0,0,0,0,0,-4.2678,-4.2678,-4.2658,-4.2651,-4.2645,-4.2549,-4.2558,-4.2539,-4.2536,-4.245,-4.2431,-4.2467,-4.2373,-4.2371,-4.2433,-4.2514,-4.2334,-4.2336,-4.2599,-4.2608,-4.2617,-4.2813,0,0,0,0,0,0,-4.2677,-4.2661,-4.2654,-4.2649,-4.2603,-4.2543,-4.253,-4.2537,-4.2462,-4.2445,-4.245,-4.2437,-4.2378,-4.2375,-4.2374,-4.2519,-4.2331,-4.2333,-4.2334,-4.2606,-4.2613,-4.262,0,0,0,0,0,0,-4.266,-4.2658,-4.2652,-4.2596,-4.2583,-4.2539,-4.2527,-4.2566,-4.2464,-4.2467,-4.2453,-4.2445,-4.2381,-4.2379,-4.2377,-4.2442,-4.2328,-4.233,-4.2332,-4.2333,-4.2612,-4.2618,0,0,0,0,0,0,-4.2658,-4.2656,-4.2596,-4.2587,-4.2575,-4.251,-4.2572,-4.2549,-4.2414,-4.2472,-4.24,-4.2393,-4.2387,-4.2383,-4.238,-4.2447,-4.2443,-4.2329,-4.233,-4.2331,-4.2331,0,0,0,0,0,0,0,-4.2656,-4.2692,-4.2685,-4.258,-4.2569,-4.2601,-4.26,-4.2598,-4.2413,-4.2407,-4.2401,-4.2396,-4.2318,-4.232,-4.2322,-4.2451,0,0,-4.2328,-4.2329,0,0,0,0,0,0,0,0,-4.269,-4.2691,-4.2685,-4.2684,-4.2683,-4.2601,-4.26,-4.2598,-4.2412,-4.2407,-4.2402,-4.2398,-4.2318,-4.232,-4.2322,0,0,0,0,0,0,0,0,0,0,0,0,0,0,0,-4.2685,-4.2684,0,-4.2601,-4.26,-4.2599,-4.2411,-4.2407,-4.2403,-4.24,-4.2319,-4.232,-4.2321,0,0,0,0,0,0,0,0,0,0,0,0,0,0,0,0,0,0,0,0,0,0,0,0,0,0,0,0,0,0,0,0,0,0,0,0,0,0,0,0,0,0,0,0,0,0,0,0,0,0,0,0,0,0,0,0,0,0,0,0,0,0,0,0,0,0,0,0,0]}],[{"header":{"parameterUnit":"kt","parameterCategory":2,"dx":1,"dy":1,"la1":30.253999710083008,"la2":30.299108505249023,"lo1":-89.0895004272461,"lo2":-89.04439544677734,"nx":28,"ny":28,"refTime":"2022-10-15T21:00:00:Z","depth":0,"parameterNumber":2,"parameterNumberName":"V-component_of_WINDS"},"data":[0.8004,0.7852,0.7842,0.7665,0.7625,0.7502,0.7454,0.7392,0.734,0.7193,0.7106,0.7079,0.7022,0.6916,0.6822,0.6812,0.6771,0.6728,0.6723,0.6927,0.6954,0.698,0.7014,0.6721,0.672,0.6511,0.6509,0.6508,0.8165,0.8124,0.8026,0.7924,0.784,0.7877,0.7799,0.7726,0.7614,0.7548,0.7461,0.733,0.7224,0.7179,0.7076,0.7005,0.7014,0.6978,0.698,0.697,0.719,0.7226,0.6973,0.6973,0.6973,0.6973,0.6973,0.6973,0.8453,0.8362,0.8292,0.8185,0.8131,0.8062,0.7973,0.7941,0.7845,0.7733,0.7738,0.7611,0.7541,0.7407,0.7359,0.7261,0.7298,0.7252,0.724,0.7228,0.7216,0.752,0.7243,0.7243,0.7244,0.7244,0.7245,0,0.8659,0.8656,0.8559,0.846,0.8381,0.8302,0.8227,0.8173,0.8158,0.8078,0.7962,0.7892,0.7756,0.7644,0.7543,0.7501,0.7524,0.7526,0.7495,0.7488,0.7498,0.7489,0.7845,0.7532,0.7534,0.7536,0.7537,0.7538,0.8946,0.8841,0.876,0.8694,0.8649,0.8543,0.8476,0.8471,0.84,0.8307,0.8226,0.8115,0.8024,0.7839,0.7798,0.7695,0.7704,0.7587,0.7688,0.769,0.7699,0.7704,0.7693,0.7564,0.7561,0.7558,0.7556,0,0.9109,0.9088,0.8919,0.8848,0.8827,0.8716,0.8655,0.8563,0.854,0.841,0.8379,0.8341,0.8225,0.8203,0.8066,0.8058,0.7877,0.7891,0.7903,0.7903,0.7794,0.7803,0.7444,0.7397,0.7705,0.7702,0.77,0,0.9344,0.9204,0.9179,0.9082,0.8928,0.8924,0.8772,0.8735,0.8672,0.8569,0.8594,0.8497,0.8483,0.8383,0.837,0.822,0.8194,0.8177,0.8174,0.8171,0.8173,0.8128,0.814,0.8175,0.8177,0.8178,0.818,0,0.9597,0.9419,0.9262,0.9217,0.9123,0.905,0.9008,0.8935,0.8868,0.8779,0.8735,0.8631,0.8573,0.8493,0.8476,0.8546,0.8291,0.8383,0.8273,0.8273,0.8211,0.8214,0.7909,0.8182,0.8183,0.8183,0.8184,0,0.9779,0.9688,0.9463,0.9387,0.9339,0.9235,0.9131,0.9037,0.8958,0.8943,0.8871,0.8882,0.8748,0.8842,0.8657,0.8753,0.8695,0.8667,0.8658,0.8639,0.8742,0.8568,0.8283,0.825,0.8632,0.8635,0.8639,0,1.0076,0.9841,0.9833,0.9619,0.9506,0.954,0.9425,0.9353,0.9322,0.9223,0.919,0.9075,0.914,0.9099,0.9012,0.8971,0.8847,0.8988,0.8842,0.8837,0.8859,0.8598,0.8558,0.835,0.8686,0.8681,0.8677,0,1.03,1.0184,1.0145,1.0093,0.9995,0.99,0.9768,0.9652,0.9587,0.9502,0.9389,0.9228,0.927,0.9203,0.9198,0.9108,0.8931,0.9163,0.916,0.912,0.8708,0.8672,0.8637,0.8949,0.8943,0.8938,0.8715,0,1.0578,1.0455,1.0352,1.0232,1.0155,1.0018,0.9989,0.9913,0.9917,0.9885,0.972,0.9649,0.9528,0.9482,0.9483,0.9283,0.9311,0.9355,0.9438,0.9269,0.9194,0.9164,0.9553,0.9555,0.9557,0.9559,0,0,1.0864,1.0686,1.0678,1.0546,1.048,1.0512,1.0368,1.0307,1.0181,1.0134,1.0183,0.9942,0.988,0.9681,0.9626,0.9577,0.9538,0.9596,0.935,0.9327,0.9306,0.9227,0.9196,0.9562,0.9563,0.9564,0.9564,0,1.0957,1.0897,1.0754,1.0691,1.0596,1.0568,1.0535,1.0444,1.0416,1.0252,1.0277,1.0174,0.9978,0.9911,0.985,0.9622,0.9643,0.9588,0.9475,0.9371,0.9345,0.9323,0.924,0.9211,0.9569,0.9569,0.9568,0,1.117,1.1105,1.1032,1.0881,1.0818,1.0699,1.0782,1.0652,1.0564,1.0599,1.0434,1.039,1.0295,1.011,1.0026,1.0065,0.9742,0.9837,0.9824,0.9812,0.971,0.9679,0.9652,1.0011,1.0013,1.0015,0,0,1.1254,1.1139,1.1063,1.0898,1.0857,1.0812,1.0745,1.074,1.0654,1.0619,1.0561,1.0476,1.0364,1.0288,1.018,0.9981,0.9959,0.9893,0.9872,0.9855,0.9834,0.9727,0.9697,1.0021,1.0021,1.0021,0,0,1.1293,1.1198,1.1216,1.1021,1.0941,1.0851,1.0752,1.0771,1.0669,1.0681,1.0663,1.0639,1.0465,1.0418,1.0508,1.0208,1.0292,1.027,1.0243,1.0216,1.0196,1.0208,1.0577,0,0,0,0,0,1.137,1.1211,1.1228,1.119,1.0995,1.0843,1.0818,1.08,1.0861,1.0784,1.0738,1.0765,1.0464,1.0542,1.0505,1.0403,1.0103,1.0088,1.0074,0.9994,0.9966,0.9943,0,0,0,0,0,0,1.1355,1.1309,1.1232,1.1137,1.1093,1.0849,1.0948,1.0939,1.0869,1.0877,1.0773,1.0762,1.0742,1.056,1.0527,1.043,1.0588,1.0097,1.0085,1.0074,0.9984,0.9961,0.9942,0,0,0,0,0,1.1343,1.1306,1.0998,1.1139,1.1101,1.1039,1.0954,1.0947,1.0892,1.0818,1.0808,1.0885,1.074,1.0711,1.054,1.0446,1.0611,1.0599,1.0089,1.0079,1.0071,0.9973,0,0,0,0,0,0,1.1334,1.1298,1.099,1.0978,1.1196,1.1053,1.103,1.0953,1.0838,1.0826,1.093,1.0937,1.0737,1.0714,1.0691,1.0453,1.063,1.0617,1.0609,1.0082,1.0074,1.0067,0,0,0,0,0,0,1.1318,1.1288,1.0984,1.1057,1.1053,1.1065,1.1044,1.0896,1.0836,1.0955,1.0958,1.0934,1.077,1.0716,1.0699,1.0467,1.0644,1.0632,1.0624,1.0619,1.0075,1.0069,0,0,0,0,0,0,1.1305,1.1279,1.1061,1.1057,1.1054,1.0915,1.0933,1.0734,1.0901,1.096,1.0915,1.0922,1.0771,1.0753,1.0703,1.0479,1.047,1.0644,1.0636,1.063,1.0626,0,0,0,0,0,0,0,1.1295,1.1474,1.1063,1.1057,1.1055,1.0864,1.0861,1.0857,1.0903,1.0908,1.0914,1.0919,1.0714,1.07,1.0687,1.0489,0,0,1.0645,1.0639,0,0,0,0,0,0,0,0,1.1484,1.1476,1.1063,1.106,1.1058,1.0864,1.0861,1.0858,1.0903,1.0908,1.0913,1.0917,1.071,1.0699,1.0688,0,0,0,0,0,0,0,0,0,0,0,0,0,0,0,1.1063,1.106,0,1.0863,1.0861,1.0859,1.0904,1.0908,1.0912,1.0915,1.0707,1.0698,1.0689,0,0,0,0,0,0,0,0,0,0,0,0,0,0,0,0,0,0,0,0,0,0,0,0,0,0,0,0,0,0,0,0,0,0,0,0,0,0,0,0,0,0,0,0,0,0,0,0,0,0,0,0,0,0,0,0,0,0,0,0,0,0,0,0,0,0,0,0,0]}]]]